Hourly Data Report for October 22, 2014

All times are specified in Local Standard Time (LST). Add 1 hour to adjust for Daylight Saving Time where and when it is observed.

QIKIQTARJUAQ A
NUNAVUT

67°32'48.000" N
64°01'54.000" W
5.50 m
2400577
YVM

Download Data

Hourly Data (October 2014)
Hourly Data Report for October 22, 2014
Temp Definition
°C
Dew Point Temp Definition
°C
Rel Hum Definition
%
Wind Dir Definition
10's deg

Wind Spd Definition
km/h
Visibility Definition
km
Stn Press Definition
kPa
Hmdx Definition


Wind Chill Definition


Weather Definition


TIME
00:00 Legend Double Dagger -5.1 -8.9 75 20 21 16.1 100.48   -12 LegendNANA
01:00 Legend Double Dagger -5.4 -8.9 77 20 18 16.1 100.50   -12 LegendNANA
02:00 Legend Double Dagger -4.4 -7.8 77 21 26 16.1 100.44   -12 LegendNANA
03:00 Legend Double Dagger -4.0 -10.7 60 20 21 16.1 100.39   -10 LegendNANA
04:00 Legend Double Dagger -3.4 -10.7 57 20 24 16.1 100.39   -10 LegendNANA
05:00 Legend Double Dagger -3.9 -8.7 69 21 24 16.1 100.41   -11 LegendNANA
06:00 Legend Double Dagger -3.5 -8.7 67 22 17 16.1 100.35   -9 LegendNANA
07:00 Legend Double Dagger -3.2 -9.1 64 LegendMM 8 16.1 100.30   -6 LegendNANA
08:00 Legend Double Dagger -3.4 -8.6 67 LegendMM 4 16.1 100.22   -5 LegendNANA
09:00 Legend Double Dagger -3.9 -8.1 73   0 16.1 100.17     LegendNANA
10:00 Legend Double Dagger -3.8 -7.4 76 13 5 16.1 100.11   -6 LegendNANA
11:00 Legend Double Dagger -3.1 -7.3 73 12 5 16.1 100.06   -5 LegendNANA
12:00 Legend Double Dagger -2.7 -8.0 67 LegendMM 4 16.1 100.03   -4 LegendNANA
13:00 Legend Double Dagger -3.7 -7.9 73 18 4 16.1 100.03   -5 LegendNANA
14:00 Legend Double Dagger -4.4 -8.8 72 18 5 16.1 100.03   -7 LegendNANA
15:00 Legend Double Dagger -5.9 -9.7 75 16 5 16.1 100.04   -8 LegendNANA
16:00 Legend Double Dagger -4.8 -9.1 72 20 15 16.1 100.06   -10 LegendNANA
17:00 Legend Double Dagger -5.8 -10.0 72 18 11 16.1 100.06   -11 LegendNANA
18:00 Legend Double Dagger -6.4 -10.9 71 15 8 16.1 100.05   -10 LegendNANA
19:00 Legend Double Dagger -7.1 -11.2 73 15 9 16.1 100.06   -11 LegendNANA
20:00 Legend Double Dagger -6.2 -11.5 67 LegendMM 4 16.1 100.06   -8 LegendNANA
21:00 Legend Double Dagger -5.1 -9.1 74 20 4 16.1 100.06   -7 LegendNANA
22:00 Legend Double Dagger -4.7 -9.1 71 7 9 16.1 100.03   -9 LegendNANA
23:00 Legend Double Dagger -3.7 -8.5 69 LegendMM 17 16.1 100.00   -9 LegendNANA

Notes on Data Quality.

Legend

  • E = Estimated
  • M = Missing
  • NA = Not Available
  • ‡ = Partner data that is not subject to review by the National Climate Archives
Date modified: